When you browse on this site, cookies collect data to enhance your experience and personalize the content and advertising you see.
Visit our Privacy Policy to learn more. By continuing to use the site, you agree to this use of cookies and data.
  • en Suisse
  • Liste des pays
  • À 7 jours
  • Température de l'eau
  • Carte météo
  • Widgets météo
  • user-avatar
    Se connecter

    Météo par heure à Belén

    Ce jour, 29 Mai, Vendredi

    Heure Température Précipitation Vent Pression Humidité
    00:00 +26°C° 0 mm 3 m/s 759 mmHg 88%
    01:00 +26°C° 0 mm 2 m/s 758 mmHg 90%
    02:00 +26°C° 0 mm 2 m/s 757 mmHg 92%
    03:00 +25°C° 0 mm 2 m/s 757 mmHg 94%
    04:00 +25°C° 0 mm 2 m/s 757 mmHg 95%
    05:00 +25°C° 0 mm 2 m/s 757 mmHg 96%
    06:00 +25°C° 0 mm 2 m/s 758 mmHg 97%
    07:00 +26°C° 0 mm 2 m/s 758 mmHg 89%
    08:00 +28°C° 0 mm 2 m/s 758 mmHg 80%
    09:00 +30°C° 0 mm 2 m/s 758 mmHg 72%
    10:00 +30°C° 0.4 mm 1 m/s 758 mmHg 75%
    11:00 +31°C° 0.4 mm 1 m/s 758 mmHg 77%
    12:00 +31°C° 0.4 mm 1 m/s 758 mmHg 79%
    13:00 +31°C° 0.7 mm 1 m/s 758 mmHg 81%
    14:00 +30°C° 0.7 mm 1 m/s 757 mmHg 83%
    15:00 +30°C° 0.7 mm 1 m/s 756 mmHg 85%
    16:00 +29°C° 0.9 mm 1 m/s 757 mmHg 88%
    17:00 +28°C° 0.9 mm 2 m/s 757 mmHg 91%
    18:00 +27°C° 0.9 mm 2 m/s 757 mmHg 94%
    19:00 +27°C° 0.6 mm 2 m/s 757 mmHg 95%
    20:00 +27°C° 0.6 mm 2 m/s 758 mmHg 95%
    21:00 +26°C° 0.6 mm 2 m/s 758 mmHg 95%
    22:00 +26°C° 0.3 mm 2 m/s 759 mmHg 95%
    23:00 +26°C° 0.3 mm 2 m/s 759 mmHg 96%

    Demain, 30 Mai, Samedi

    Heure Température Précipitation Vent Pression Humidité
    00:00 +26°C° 0.3 mm 2 m/s 759 mmHg 96%
    01:00 +26°C° 0.3 mm 2 m/s 758 mmHg 96%
    02:00 +26°C° 0.3 mm 2 m/s 758 mmHg 97%
    03:00 +25°C° 0.3 mm 2 m/s 757 mmHg 97%
    04:00 +25°C° 0.2 mm 2 m/s 758 mmHg 97%
    05:00 +25°C° 0.2 mm 2 m/s 758 mmHg 97%
    06:00 +25°C° 0.2 mm 2 m/s 758 mmHg 97%
    07:00 +26°C° 0.4 mm 2 m/s 758 mmHg 96%
    08:00 +27°C° 0.4 mm 1 m/s 759 mmHg 94%
    09:00 +28°C° 0.4 mm 1 m/s 759 mmHg 93%
    10:00 +29°C° 0.6 mm 2 m/s 759 mmHg 88%
    11:00 +30°C° 0.6 mm 2 m/s 759 mmHg 83%
    12:00 +31°C° 0.6 mm 2 m/s 759 mmHg 78%
    13:00 +31°C° 0.7 mm 2 m/s 758 mmHg 80%
    14:00 +30°C° 0.7 mm 2 m/s 757 mmHg 83%
    15:00 +30°C° 0.7 mm 2 m/s 756 mmHg 86%
    16:00 +29°C° 1.2 mm 2 m/s 757 mmHg 89%
    17:00 +28°C° 1.2 mm 2 m/s 757 mmHg 92%
    18:00 +27°C° 1.2 mm 2 m/s 757 mmHg 94%
    19:00 +27°C° 0.3 mm 2 m/s 758 mmHg 95%
    20:00 +26°C° 0.3 mm 2 m/s 758 mmHg 95%
    21:00 +26°C° 0.3 mm 2 m/s 758 mmHg 96%
    22:00 +26°C° 0 mm 2 m/s 759 mmHg 96%
    23:00 +26°C° 0 mm 2 m/s 759 mmHg 96%

    Après-demain, 31 Mai, Dimanche

    Heure Température Précipitation Vent Pression Humidité
    00:00 +26°C° 0 mm 2 m/s 759 mmHg 96%
    01:00 +26°C° 0.1 mm 2 m/s 759 mmHg 97%
    02:00 +25°C° 0.1 mm 2 m/s 758 mmHg 97%
    03:00 +25°C° 0.1 mm 2 m/s 758 mmHg 97%
    04:00 +25°C° 0.4 mm 2 m/s 758 mmHg 97%
    05:00 +25°C° 0.4 mm 2 m/s 758 mmHg 97%
    06:00 +25°C° 0.4 mm 2 m/s 758 mmHg 97%
    07:00 +26°C° 0.3 mm 2 m/s 759 mmHg 95%
    08:00 +27°C° 0.3 mm 2 m/s 759 mmHg 92%
    09:00 +28°C° 0.3 mm 2 m/s 759 mmHg 90%
    10:00 +30°C° 0.2 mm 2 m/s 759 mmHg 80%
    11:00 +31°C° 0.2 mm 2 m/s 759 mmHg 70%
    12:00 +33°C° 0.2 mm 1 m/s 759 mmHg 61%
    13:00 +32°C° 0.3 mm 2 m/s 758 mmHg 67%
    14:00 +32°C° 0.3 mm 2 m/s 758 mmHg 72%
    15:00 +31°C° 0.3 mm 3 m/s 757 mmHg 78%
    16:00 +30°C° 1.1 mm 3 m/s 757 mmHg 84%
    17:00 +28°C° 1.1 mm 3 m/s 757 mmHg 89%
    18:00 +27°C° 1.1 mm 3 m/s 757 mmHg 94%
    19:00 +27°C° 0.2 mm 2 m/s 758 mmHg 95%
    20:00 +26°C° 0.2 mm 2 m/s 758 mmHg 95%
    21:00 +26°C° 0.2 mm 2 m/s 759 mmHg 96%
    22:00 +26°C° 0.2 mm 2 m/s 759 mmHg 96%
    23:00 +26°C° 0.2 mm 2 m/s 759 mmHg 96%

    1 Juin, Lundi

    Heure Température Précipitation Vent Pression Humidité
    00:00 +26°C° 0.2 mm 2 m/s 759 mmHg 97%
    01:00 +25°C° 0 mm 2 m/s 758 mmHg 97%
    02:00 +25°C° 0 mm 2 m/s 758 mmHg 97%
    03:00 +25°C° 0 mm 2 m/s 757 mmHg 97%
    04:00 +25°C° 0 mm 2 m/s 757 mmHg 97%
    05:00 +25°C° 0 mm 2 m/s 757 mmHg 97%
    06:00 +25°C° 0 mm 2 m/s 758 mmHg 97%
    07:00 +26°C° 0 mm 2 m/s 758 mmHg 92%
    08:00 +27°C° 0 mm 2 m/s 759 mmHg 87%
    09:00 +29°C° 0 mm 2 m/s 759 mmHg 82%
    10:00 +30°C° 0 mm 2 m/s 759 mmHg 73%
    11:00 +32°C° 0 mm 2 m/s 759 mmHg 63%
    12:00 +35°C° 0 mm 2 m/s 758 mmHg 54%
    13:00 +34°C° 0.5 mm 2 m/s 758 mmHg 61%
    14:00 +34°C° 0.5 mm 2 m/s 757 mmHg 68%
    15:00 +32°C° 0.5 mm 2 m/s 756 mmHg 75%
    16:00 +30°C° 0.7 mm 2 m/s 756 mmHg 81%
    17:00 +29°C° 0.7 mm 2 m/s 757 mmHg 87%
    18:00 +27°C° 0.7 mm 2 m/s 757 mmHg 93%
    19:00 +27°C° 0.3 mm 2 m/s 757 mmHg 94%
    20:00 +26°C° 0.3 mm 2 m/s 758 mmHg 94%
    21:00 +26°C° 0.3 mm 2 m/s 758 mmHg 95%
    22:00 +26°C° 0.2 mm 2 m/s 758 mmHg 95%
    23:00 +26°C° 0.2 mm 3 m/s 759 mmHg 96%

    2 Juin, Mardi

    Heure Température Précipitation Vent Pression Humidité
    00:00 +26°C° 0.2 mm 3 m/s 759 mmHg 96%
    01:00 +25°C° 0.2 mm 2 m/s 758 mmHg 96%
    02:00 +25°C° 0.2 mm 2 m/s 758 mmHg 97%
    03:00 +25°C° 0.2 mm 2 m/s 757 mmHg 97%
    04:00 +25°C° 0.3 mm 2 m/s 757 mmHg 97%
    05:00 +25°C° 0.3 mm 2 m/s 758 mmHg 97%
    06:00 +25°C° 0.3 mm 2 m/s 758 mmHg 97%
    07:00 +26°C° 0.2 mm 2 m/s 758 mmHg 92%
    08:00 +27°C° 0.2 mm 2 m/s 759 mmHg 87%
    09:00 +29°C° 0.2 mm 2 m/s 759 mmHg 82%
    10:00 +30°C° 0.1 mm 2 m/s 759 mmHg 73%
    11:00 +32°C° 0.1 mm 2 m/s 758 mmHg 65%
    12:00 +35°C° 0.1 mm 2 m/s 758 mmHg 56%
    13:00 +34°C° 0.2 mm 2 m/s 757 mmHg 59%
    14:00 +34°C° 0.2 mm 3 m/s 756 mmHg 62%
    15:00 +34°C° 0.2 mm 3 m/s 756 mmHg 65%
    16:00 +31°C° 0.2 mm 3 m/s 756 mmHg 74%
    17:00 +30°C° 0.2 mm 3 m/s 756 mmHg 82%
    18:00 +28°C° 0.2 mm 3 m/s 756 mmHg 90%
    19:00 +27°C° 0.1 mm 2 m/s 757 mmHg 92%
    20:00 +27°C° 0.1 mm 2 m/s 757 mmHg 93%
    21:00 +26°C° 0.1 mm 2 m/s 758 mmHg 95%
    22:00 +26°C° 0 mm 2 m/s 758 mmHg 95%
    23:00 +26°C° 0 mm 3 m/s 758 mmHg 96%

    3 Juin, Mercredi

    Heure Température Précipitation Vent Pression Humidité
    00:00 +26°C° 0 mm 3 m/s 758 mmHg 97%
    01:00 +25°C° 0 mm 3 m/s 758 mmHg 97%
    02:00 +25°C° 0 mm 2 m/s 757 mmHg 97%
    03:00 +25°C° 0 mm 2 m/s 757 mmHg 97%
    04:00 +25°C° 0 mm 2 m/s 757 mmHg 97%
    05:00 +25°C° 0 mm 2 m/s 757 mmHg 97%
    06:00 +25°C° 0 mm 2 m/s 758 mmHg 97%
    07:00 +26°C° 0 mm 2 m/s 758 mmHg 93%
    08:00 +27°C° 0 mm 2 m/s 758 mmHg 90%
    09:00 +28°C° 0 mm 2 m/s 759 mmHg 86%
    10:00 +30°C° 0.1 mm 2 m/s 759 mmHg 75%
    11:00 +32°C° 0.1 mm 2 m/s 758 mmHg 65%
    12:00 +34°C° 0.1 mm 2 m/s 758 mmHg 54%
    13:00 +35°C° 0 mm 2 m/s 757 mmHg 53%
    14:00 +35°C° 0 mm 2 m/s 756 mmHg 51%
    15:00 +35°C° 0 mm 3 m/s 756 mmHg 50%
    16:00 +33°C° 0.4 mm 3 m/s 756 mmHg 62%
    17:00 +30°C° 0.4 mm 3 m/s 756 mmHg 75%
    18:00 +28°C° 0.4 mm 3 m/s 756 mmHg 88%
    19:00 +27°C° 0.5 mm 3 m/s 757 mmHg 90%
    20:00 +26°C° 0.5 mm 3 m/s 757 mmHg 92%
    21:00 +26°C° 0.5 mm 3 m/s 758 mmHg 94%
    22:00 +26°C° 0.1 mm 3 m/s 758 mmHg 95%
    23:00 +25°C° 0.1 mm 3 m/s 758 mmHg 96%
    Voir plus